{"data":{"norad_id":69595,"epoch":"2026-09-19T10:05:22.139232Z","epoch_age_seconds":122209,"freshness":"FRESH","line1":"1 69595U 26140D   26262.42039513  .00001853  00000+0  27199-3 0  9999","line2":"2 69595  51.9054 318.9246 0000405  77.2561 282.8447 14.79931795 15512","mean_motion":14.79931795,"eccentricity":4.05e-5,"inclination_deg":51.9054,"raan_deg":318.9246,"arg_perigee_deg":77.2561,"mean_anomaly_deg":282.8447,"bstar":0.00027199,"rev_number":1551,"period_min":97.301781397297,"perigee_km":629.25562216844,"apogee_km":629.82324395952,"semimajor_km":7007.676433064,"source":"CELESTRAK","updated_at":"2026-09-20T09:00:24.998955Z"}}